Location: ??
(34.7707°N, 135.6540°E)
Time: 07:20:46
(UTC+00:00)

Cosmos 1437 Rocket - Pass Details

Date: 09 April 2020
Orbit: 507 x 562 km, 81.2° (Epoch: 25 May)

Event Time Altitude Azimuth Distance (km) Brightness Sun altitude
Exits shadow 19:35:17 - 201° (SSW) 2,165 5.5 -12.2°
Reaches altitude 10° 19:36:05 10° 203° (SSW) 1,846 5.1 -12.0°
Maximum altitude 19:40:04 52° 280° (W) 705 3.0 -11.2°
Drops below altitude 10° 19:44:03 10° 357° (N) 1,848 5.7 -10.5°
Sets 19:46:16 0° 3° (N) 2,741 6.7 -10.0°
